Regional Weather Roundup
Issued by NWS

Home | Current Version | Previous Version | Graphics & Text | Print | Product List | Glossary On
Versions: 1 2 3 4 5 6 7 8 9 10 11 12 13 14 15 16 17 18 19 20 21 22 23 24 25 26 27 28 29 30 31 32 33 34 35 36 37 38 39 40 41 42 43 44 45 46 47 48 49 50
000
ASUS43 KIND 280209
RWRIN

WEATHER ROUNDUP FOR INDIANA
NATIONAL WEATHER SERVICE INDIANAPOLIS IN
900 PM EST THU NOV 27 2014

NOTE: "FAIR" INDICATES FEW OR NO CLOUDS BELOW 12,000 FEET WITH NO
SIGNIFICANT WEATHER AND/OR OBSTRUCTIONS TO VISIBILITY.

* - STATION DOES NOT REPORT WEATHER SUCH AS PRECIPITATION OR FOG.

+ - STATION NOT QUALITY CONTROLLED BY THE NATIONAL WEATHER SERVICE.
    USE DATA WITH CAUTION...ESPECIALLY DEWPOINT AND RELATIVE
    HUMIDITY OBSERVATIONS.

INZ001>003-010>013-019-020-280300-
NORTHWEST INDIANA

CITY           SKY/WX    TMP DP  RH WIND       PRES   REMARKS
GARY /AIRPORT/ CLOUDY    25  12  58 NW8       30.40S WCI  16
KNOX *+        CLOUDY    24  16  72 NW9       30.38S WCI  14
LA PORTE +     CLOUDY    26  16  66 W6        30.37F WCI  19
MICHIGAN CITY+ CLOUDY    25  12  58 NW5       30.39S WCI  19
MONTICELLO +   FLURRIES  24  19  79 NW6       30.40R WCI  17
RENSSELAER +   CLOUDY    25  21  86 W8        30.40S WCI  16
VALPARAISO     CLOUDY    22  14  71 W8        30.38S WCI  12

$$

LMZ046-743>745-280300-
SOUTHERN LAKE MICHIGAN

STATION/POSITION TIME  TEMP WIND        PRES
                       AIR  DIR/SP/G
                 (UTC) (F)  (DEG/KT/KT) (MB)
MICHIGAN CITY    0200   24  270/ 16/ 18   N/A

$$

INZ004-005-014>016-021>024-280300-
NORTH CENTRAL INDIANA

CITY           SKY/WX    TMP DP  RH WIND       PRES   REMARKS
GOSHEN         CLOUDY    23  18  81 W9        30.34S WCI  13
LOGANSPORT +   CLOUDY    27  14  59 NW7       30.39S WCI  19
PERU/GRISSOM   FLURRIES  25  21  84 NW10      30.37S WCI  15
ROCHESTER +    FLURRIES  27  21  80 W9        30.39R WCI  17
SOUTH BEND     CLOUDY    24  15  68 W10       30.36S WCI  14
WARSAW +       PTCLDY    21  19  93 W9        30.36R WCI  11

$$

INZ006>009-017-018-025>027-280300-
NORTHEAST INDIANA

CITY           SKY/WX    TMP DP  RH WIND       PRES   REMARKS
ANGOLA *+      CLOUDY    25  18  74 NW12      30.31S WCI  14
AUBURN +       LGT SNOW  28  23  80 NW5       30.34R WCI  23
FORT WAYNE     FLURRIES  26  20  77 W16       30.35R WCI  14
HUNTINGTON +   CLOUDY    25  19  78 W6        30.36R WCI  18

$$

INZ028-029-035-036-043>045-051>053-280300-
WEST CENTRAL INDIANA

CITY           SKY/WX    TMP DP  RH WIND       PRES   REMARKS
GREENCASTLE +  FLURRIES  27  21  80 W7        30.41S WCI  19
LAFAYETTE      CLOUDY    24  17  74 W12       30.41S WCI  13
TERRE HAUTE    PTCLDY    22  17  81 W8        30.45S WCI  12

$$

INZ030>032-037>040-046>048-054>057-064-065-280300-
CENTRAL INDIANA

CITY           SKY/WX    TMP DP  RH WIND       PRES   REMARKS
CP ATTERBURY + FLURRIES  28  23  80 W5        30.42S WCI  23
FRANKFORT +    FLURRIES  26  22  86 W8        30.41S WCI  17
INDIANAPOLIS   FLURRIES  25  19  78 W9        30.39S WCI  15
-EAGLE CREEK   CLOUDY    26  18  71 NW10      30.39S WCI  16
KOKOMO *+      CLOUDY    25  18  74 NW13      30.38S WCI  13
MARION +       LGT SNOW  24  19  82 W14       30.38S WCI  12
MT COMFORT *+  CLOUDY    27  16  63 W10       30.39S WCI  17
SHELBYVILLE    CLOUDY    28  18  66 W7        30.39S WCI  21
ZIONSVILLE +   CLOUDY    26  21  81 NW7       30.39F WCI  18

$$

INZ033-034-041-042-049-050-058-059-280300-
EAST CENTRAL INDIANA

CITY           SKY/WX    TMP DP  RH WIND       PRES   REMARKS
MUNCIE         CLOUDY    25  17  72 MISG      30.36S

$$

INZ060-061-067>069-081>083-085>088-280300-
SOUTHWEST INDIANA

CITY           SKY/WX    TMP DP  RH WIND       PRES   REMARKS
EVANSVILLE     CLEAR     28  21  75 CALM      30.49R
HUNTINGBURG *+ CLOUDY    28  19  69 W7        30.47S WCI  21
WASHINGTON +   CLOUDY    28  24  82 NW10      30.45F WCI  19

$$

INZ062-063-066-070>080-084-089>092-280300-
SOUTH CENTRAL AND SOUTHEAST INDIANA

CITY           SKY/WX    TMP DP  RH WIND       PRES   REMARKS
BLOOMINGTON    CLOUDY    26  20  77 W8        30.41S WCI  18

$$



USA.gov is the U.S. government's official web portal to all federal, state and local government web resources and services.